ATLAS 5 CENTAUR DEB, 43962

Orbit data source: Space-Track

ATLAS 5 CENTAUR DEB, 43962 is space debris in HEO originally from a launch on Wed, 17 Sep 2014 UTC launched from the Air Force Eastern Test Range (AFETR). Debris objects in space refer to the collection of defunct objects orbiting the Earth. Examples of debris include non-operational satellites, rocket bodies, and fragments generated from explosions, collisions, or faulty payload assembly.

Loading next visibility...
ATLAS 5 CENTAUR DEB details
Identifier
43962, 2014-055R
Orbit
HEO
Last TLE update1 day ago
Origin
Flag of USULA (US)
ManufacturerUnknown
MissionSpacecraft
Bus & MotorUnknown
MassUnknown
Launch date (UTC)
2014-09-17 (10 years ago)
Launch vehicleUnknown
Launch site
Air Force Eastern Test Range (AFETR)
Object type
Payload
Rocket body
Debris
Shape & HBRUnknown
Radar Cross SectionSmall (<0.1 m²)

Expand to show TLE details & history

TLE from 1 day ago
0 ATLAS 5 CENTAUR DEB
1 43962U 14055R   24336.32319885 -.00000056  00000-0  00000+0 0  9997
2 43962  19.9854 171.7869 5109486 118.4949 301.9328  1.90777244 43532
Epoch: 2024-12-01T07:45Z
Definitive object data (Epoch: 2024-12-01T07:45:24.38Z)
Latitude-0.00005°
Longitude-15.13611°
Altitude20,397.813 km
Speed3.906 km/s
True Right ascension11h 27m 30s
True Declination0° 00' 00"
Sunlit
Object was in daylight at TLE epoch
Visualization TLE readout
Latitude-3.13505°
Longitude-23.92476°
Altitude23,138.873 km
Speed3.535 km/s
Apparent Right ascension11h 29m 48s
Apparent Declination-11° 26' 34"
Sunlit
Object is in daylight
Visualization observer readout
Local Sidereal Time06:17:09
Azimuth106.336° ESE
Elevation1.542°
Doppler factor1
Orbital elements
Apogee altitude35,117.301 km
Perigee altitude7,052.765 km
Semi-major axis27,463.17 km
Eccentricity0.5109486
Inclination19.9854°
RAAN171.7869°
Arg. of periapsis118.4949°
True anomaly241.61337°
Mean anomaly301.9328°
Eccentric anomaly272.68986°
Mean motion0.47689 °/min
BSTARUnknown
Orbital period754.89 mins
Loading maneuver chart data...

ATLAS 5 CENTAUR DEB Visibility forecast

Observer location: undefined°, undefined

Span
Click to sort rows by Start time (UTC) header in descending order
Start Az.
Max El. time (UTC)
Max El. Az.
Max El.
End time (UTC)
End Az.
90 mins2024-12-02 23:10:54.560Z266.212° W2024-12-02 23:43:54.560Z200.478° SSW33.239°2024-12-03 00:40:54.560Z133.58° SE
51 mins2024-12-03 07:39:54.560Z127.056° SE2024-12-03 08:30:54.560Z126.324° SE12.786°2024-12-03 08:30:54.560Z126.324° SE
|